Colby, KS

6:06 AM CST on December 13, 2017 (GMT -0600)
Shaltz

Weather History for KCBK - February, 2014

Change the Weather History Date:

Tuesday, February 4, 2014

  Actual Average (KGLD) Record (KGLD)
Temperature  
Mean Temperature 14 °F -  
Max Temperature 26 °F 38 °F 68 °F (1935)
Min Temperature 3 °F 16 °F -15 °F (1985)
Degree Days  
Heating Degree Days 50    
Moisture  
Dew Point 15 °F    
Average Humidity 96    
Maximum Humidity 100    
Minimum Humidity 85    
Precipitation  
Precipitation 0.00 in - - ()
Sea Level Pressure  
Sea Level Pressure 30.08 in    
Wind  
Wind Speed 15 mph (NNE)    
Max Wind Speed 26 mph    
Max Gust Speed 33 mph    
Visibility 4 miles    
Events Snow    
Averages and records for this station are not official NWS values.
T = Trace of Precipitation, MM = Missing Value Source: NWS Daily Summary

Daily Weather History Graph

Daily Weather History Graph

Search for Another Location

Airport or City:

Trip Planner

Search our weather history database for the weather conditions in past years. The results will help you decide how hot, cold, wet, or windy it might be!

Date:

Astronomy

Feb. 04, 2014 Rise Set
Actual Time 7:48 AM CST 6:08 PM CST
Civil Twilight 7:20 AM CST 6:36 PM CST
Nautical Twilight 6:48 AM CST 7:08 PM CST
Astronomical Twilight 6:17 AM CST 7:39 PM CST
Moon 10:29 AM CST (2/4) No Moon Set
Length of Visible Light 11h 15m
Length of Day
10h 19m
Waxing Crescent, 29% of the Moon is Illuminated
Feb 4
Waxing Crescent
Feb 6
First Quarter
Feb 14
Full
Feb 22
Last Quarter
Mar 1
New

Hourly Weather History & Observations

Time (CST) Temp. Windchill Dew Point Humidity Pressure Visibility Wind Dir Wind Speed Gust Speed Precip Events Conditions
12:15 AM 26.6 °F 20.0 °F 23.0 °F 86% 30.01 in 10.0 mi ENE 5.8 mph - N/A   Overcast
12:35 AM 24.8 °F 14.6 °F 23.0 °F 93% 30.00 in 10.0 mi NNE 10.4 mph - N/A   Overcast
12:55 AM 24.8 °F 14.0 °F 23.0 °F 93% 29.99 in 10.0 mi NNE 11.5 mph - N/A   Overcast
1:10 AM 23.0 °F 13.1 °F 23.0 °F 100% 29.99 in 10.0 mi NNE 9.2 mph - N/A   Overcast
1:35 AM 23.0 °F 12.4 °F 23.0 °F 100% 30.00 in 10.0 mi NNE 10.4 mph - N/A   Overcast
1:55 AM 23.0 °F 12.4 °F 23.0 °F 100% 30.00 in 10.0 mi NE 10.4 mph - N/A   Overcast
2:15 AM 23.0 °F 12.4 °F 21.2 °F 93% 29.99 in 10.0 mi NE 10.4 mph - N/A   Overcast
2:35 AM 23.0 °F 11.7 °F 21.2 °F 93% 30.00 in 10.0 mi NE 11.5 mph - N/A   Overcast
2:55 AM 23.0 °F 11.1 °F 21.2 °F 93% 30.00 in 10.0 mi NE 12.7 mph - N/A   Overcast
3:15 AM 23.0 °F 11.1 °F 21.2 °F 93% 29.99 in 10.0 mi NNE 12.7 mph - N/A   Overcast
3:35 AM 21.2 °F 8.9 °F 21.2 °F 100% 30.00 in 10.0 mi NE 12.7 mph - N/A   Overcast
3:55 AM 21.2 °F 9.5 °F 21.2 °F 100% 30.00 in 10.0 mi NE 11.5 mph - N/A   Overcast
4:15 AM 21.2 °F 8.9 °F 21.2 °F 100% 29.99 in 10.0 mi NE 12.7 mph - N/A   Overcast
4:35 AM 21.2 °F 8.9 °F 21.2 °F 100% 30.00 in 10.0 mi NE 12.7 mph - N/A   Overcast
4:55 AM 21.2 °F 8.9 °F 21.2 °F 100% 29.99 in 10.0 mi NE 12.7 mph - N/A   Overcast
5:15 AM 21.2 °F 7.8 °F 21.2 °F 100% 29.99 in 10.0 mi NE 15.0 mph - N/A   Overcast
5:35 AM 21.2 °F 7.3 °F 21.2 °F 100% 29.99 in 10.0 mi NE 16.1 mph - N/A   Overcast
5:55 AM 21.2 °F 7.8 °F 21.2 °F 100% 29.98 in 10.0 mi NE 15.0 mph - N/A   Overcast
6:15 AM 21.2 °F 7.8 °F 21.2 °F 100% 29.98 in 10.0 mi NNE 15.0 mph - N/A   Overcast
6:35 AM 21.2 °F 8.9 °F 21.2 °F 100% 29.98 in 5.0 mi NNE 12.7 mph - N/A Snow Light Snow
6:55 AM 21.2 °F 7.8 °F 21.2 °F 100% 29.98 in 2.5 mi NNE 15.0 mph - N/A Snow Light Snow
7:15 AM 21.2 °F 7.8 °F 21.2 °F 100% 29.98 in 4.0 mi NNE 15.0 mph - N/A Snow Light Snow
7:35 AM 21.2 °F 8.3 °F 21.2 °F 100% 29.98 in 4.0 mi NNE 13.8 mph - N/A Snow Light Snow
7:55 AM 19.4 °F 5.5 °F 19.4 °F 100% 29.98 in 1.5 mi NNE 15.0 mph - N/A Snow Light Snow
8:15 AM 19.4 °F 5.0 °F 19.4 °F 100% 29.98 in 1.5 mi NNE 16.1 mph - N/A Snow Light Snow
8:35 AM 19.4 °F 4.1 °F 19.4 °F 100% 29.98 in 1.8 mi NNE 18.4 mph 23.0 mph N/A Snow Light Snow
8:55 AM 21.2 °F 6.8 °F 21.2 °F 100% 30.00 in 2.5 mi NNE 17.3 mph - N/A Snow Light Snow
9:15 AM 21.2 °F 6.4 °F 21.2 °F 100% 30.00 in 2.5 mi NNE 18.4 mph - N/A Snow Light Snow
9:35 AM 21.2 °F 6.4 °F 21.2 °F 100% 30.00 in 2.0 mi NNE 18.4 mph 23.0 mph N/A Snow Light Snow
9:55 AM 21.2 °F 7.3 °F 21.2 °F 100% 30.00 in 1.8 mi NNE 16.1 mph - N/A Snow Light Snow
10:15 AM 21.2 °F 6.8 °F 21.2 °F 100% 30.01 in 1.2 mi NNE 17.3 mph - N/A Snow Light Snow
10:35 AM 21.2 °F 6.4 °F 21.2 °F 100% 30.02 in 1.5 mi NNE 18.4 mph - N/A Snow Light Snow
10:55 AM 21.2 °F 5.6 °F 21.2 °F 100% 30.02 in 1.0 mi NNE 20.7 mph - N/A Snow Light Snow
11:15 AM 21.2 °F 6.8 °F 21.2 °F 100% 30.02 in 0.8 mi NNE 17.3 mph - N/A Snow Light Snow
11:30 AM 21.2 °F 5.6 °F 21.2 °F 100% 30.02 in 0.5 mi NNE 20.7 mph 24.2 mph N/A Snow Light Snow
11:50 AM 21.2 °F 6.4 °F 19.4 °F 93% 30.02 in 0.5 mi NNE 18.4 mph 25.3 mph N/A Snow Light Snow
12:10 PM 21.2 °F 5.2 °F 19.4 °F 93% 30.03 in 0.5 mi NNE 21.9 mph 26.5 mph N/A Snow Light Snow
12:30 PM 19.4 °F 4.1 °F 19.4 °F 100% 30.03 in 0.5 mi NNE 18.4 mph - N/A Snow Light Snow
12:50 PM 19.4 °F 4.1 °F 19.4 °F 100% 30.02 in 0.8 mi NNE 18.4 mph - N/A Snow Light Snow
1:10 PM 19.4 °F 3.2 °F 17.6 °F 93% 30.02 in 0.8 mi NNE 20.7 mph 28.8 mph N/A Snow Light Snow
1:30 PM 17.6 °F -0.6 °F 17.6 °F 100% 30.02 in 0.8 mi NNE 25.3 mph 28.8 mph N/A Snow Light Snow
1:50 PM 17.6 °F 0.1 °F 15.8 °F 93% 30.02 in 0.5 mi North 23.0 mph 29.9 mph N/A Snow Light Snow
2:10 PM 15.8 °F -1.9 °F 14.0 °F 93% 30.03 in 0.5 mi North 21.9 mph - N/A Snow Light Snow
2:30 PM 14.0 °F -3.9 °F 14.0 °F 100% 30.03 in 0.8 mi North 20.7 mph 27.6 mph N/A Snow Light Snow
2:50 PM 14.0 °F -4.7 °F 12.2 °F 93% 30.03 in 0.8 mi NNE 23.0 mph 31.1 mph N/A Snow Light Snow
3:10 PM 14.0 °F -5.1 °F 12.2 °F 93% 30.03 in 0.8 mi North 24.2 mph 28.8 mph N/A Snow Light Snow
3:30 PM 14.0 °F -5.1 °F 12.2 °F 93% 30.04 in 1.0 mi NNE 24.2 mph 29.9 mph N/A Snow Light Snow
3:50 PM 14.0 °F -5.5 °F 12.2 °F 93% 30.05 in 1.2 mi North 25.3 mph - N/A Snow Light Snow
4:10 PM 14.0 °F -5.1 °F 12.2 °F 93% 30.07 in 1.2 mi North 24.2 mph - N/A Snow Light Snow
4:30 PM 14.0 °F -5.5 °F 12.2 °F 93% 30.08 in 1.5 mi North 25.3 mph 32.2 mph N/A Snow Light Snow
4:50 PM 12.2 °F -8.2 °F 10.4 °F 92% 30.08 in 1.0 mi NNE 26.5 mph 29.9 mph N/A Snow Light Snow
5:10 PM 12.2 °F -7.5 °F 10.4 °F 92% 30.10 in 1.5 mi North 24.2 mph 33.4 mph N/A Snow Light Snow
5:30 PM 10.4 °F -9.5 °F 10.4 °F 100% 30.11 in 1.2 mi North 23.0 mph 27.6 mph N/A Snow Light Snow
5:50 PM 10.4 °F -10.3 °F 8.6 °F 92% 30.13 in 1.8 mi North 25.3 mph - N/A Snow Light Snow
6:10 PM 10.4 °F -9.9 °F 8.6 °F 92% 30.14 in 1.0 mi North 24.2 mph - N/A Snow Light Snow
6:30 PM 8.6 °F -12.3 °F 8.6 °F 100% 30.16 in 1.5 mi North 24.2 mph 28.8 mph N/A Snow Light Snow
6:50 PM 8.6 °F -12.3 °F 8.6 °F 100% 30.18 in 2.0 mi North 24.2 mph 29.9 mph N/A Snow Light Snow
7:10 PM 8.6 °F -11.0 °F 6.8 °F 92% 30.19 in 2.5 mi North 20.7 mph 26.5 mph N/A Snow Light Snow
7:30 PM 8.6 °F -11.4 °F 6.8 °F 92% 30.20 in 3.0 mi North 21.9 mph - N/A Snow Light Snow
7:50 PM 8.6 °F -10.5 °F 5.0 °F 85% 30.21 in 3.0 mi North 19.6 mph 31.1 mph N/A Snow Light Snow
8:10 PM 6.8 °F -13.4 °F 5.0 °F 92% 30.23 in 3.0 mi North 20.7 mph - N/A Snow Light Snow
8:30 PM 6.8 °F -12.9 °F 5.0 °F 92% 30.25 in 3.0 mi North 19.6 mph 27.6 mph N/A Snow Light Snow
8:50 PM 6.8 °F -11.8 °F 5.0 °F 92% 30.27 in 5.0 mi North 17.3 mph - N/A Snow Light Snow
9:10 PM 5.0 °F -17.1 °F 3.2 °F 92% 30.27 in 5.0 mi North 24.2 mph 28.8 mph N/A Snow Light Snow
9:30 PM 5.0 °F -14.7 °F 3.2 °F 92% 30.29 in 3.0 mi North 18.4 mph 23.0 mph N/A Snow Light Snow
9:50 PM 5.0 °F -15.2 °F 3.2 °F 92% 30.30 in 4.0 mi North 19.6 mph 24.2 mph N/A Snow Light Snow
10:10 PM 5.0 °F -14.7 °F 3.2 °F 92% 30.31 in 7.0 mi North 18.4 mph - N/A   Overcast
10:30 PM 5.0 °F -14.7 °F 1.4 °F 85% 30.32 in 7.0 mi North 18.4 mph 21.9 mph N/A   Overcast
10:50 PM 3.2 °F -18.1 °F 1.4 °F 92% 30.34 in 5.0 mi NNW 20.7 mph 25.3 mph N/A   Overcast
11:10 PM 3.2 °F -16.5 °F 1.4 °F 92% 30.34 in 7.0 mi North 17.3 mph 25.3 mph N/A   Overcast
11:30 PM 3.2 °F -15.9 °F -0.4 °F 85% 30.36 in 7.0 mi NNW 16.1 mph 23.0 mph N/A   Overcast
11:50 PM 3.2 °F -14.6 °F -0.4 °F 85% 30.36 in 5.0 mi NNW 13.8 mph - N/A   Overcast